Regional Weather Roundup
Issued by NWS San Diego, CA

Home | Current Version | Previous Version | Text Only | Print | Product List | Glossary On
Versions: 1 2 3 4 5 6 7 8 9 10 11 12 13 14 15 16 17 18 19 20 21 22 23 24 25 26 27 28 29 30 31 32 33 34 35 36 37 38 39 40 41 42 43 44 45 46 47 48 49 50
000
ASUS46 KSGX 280511
RWRSGX

SAN DIEGO HOURLY WEATHER ROUNDUP
NATIONAL WEATHER SERVICE SAN DIEGO CA
1000 PM PDT MON MAR 27 2017

NOTE: "FAIR" INDICATES FEW OR NO CLOUDS BELOW 12,000 FEET WITH NO
SIGNIFICANT WEATHER AND/OR OBSTRUCTIONS TO VISIBILITY.

CAZ042-043-060-061-PZZ750-775-280600-

GREATER SAN DIEGO AREA

CITY           SKY/WX    TMP DP  RH WIND       PRES   REMARKS
SAN DIEGO AP   PTCLDY    62  52  69 SW6       30.03R
NATIONAL CITY    N/A     61  55  81 SW1       30.02R
CHULA VISTA      N/A     58  54  87 CALM      29.94R
BROWN FIELD    CLEAR     54  51  90 CALM      30.02R
MIRAMAR MCAS   CLEAR     56  50  80 E3        30.02R
MONTGOMERY FLD CLEAR     56  50  80 SE3       30.02R

$$

NORTH SAN DIEGO COUNTY

CITY           SKY/WX    TMP DP  RH WIND       PRES   REMARKS
CAMP PENDLETON CLOUDY    54  51  90 NE3       30.01R
OCEANSIDE AP   MOCLDY    55  52  89 W3        30.00R
OCEANSIDE HBR    N/A     60  54  82 NW3       30.04R
VISTA            N/A     56  51  84 CALM      30.00R
CARLSBAD       CLEAR     58  54  86 SE3       30.01R
DEL MAR          N/A     56  54  91 CALM      30.04R
LA JOLLA SCRIP   N/A     58  54  87 E2        30.02R
FALLBROOK        N/A     55  54  96 CALM      30.00R
ESCONDIDO        N/A     57  52  84 CALM      30.03R
SAN MARCOS       N/A     55  50  82 CALM      30.03R
POWAY            N/A     54  50  85 CALM      30.05R

$$

EAST SAN DIEGO COUNTY

CITY           SKY/WX    TMP DP  RH WIND       PRES   REMARKS
RAMONA         CLEAR     49  48  97 NE3       30.02R
SANTEE LAKES     N/A     54  50  85 CALM      30.02R
LA MESA          N/A     54  51  89 CALM      29.95R
JAMUL            N/A     52  49  90 CALM      30.03R
DESCANSO N       N/A     46  39  77 CALM      29.98R
CAMPO            N/A     50  46  86 W9        29.98R

$$

ORANGE COUNTY AND THE LOS ANGELES BASIN

CITY           SKY/WX    TMP DP  RH WIND       PRES   REMARKS
JOHN WAYNE AP  CLEAR     61  46  57 CALM      29.99R
LAGUNA BEACH     N/A    N/A N/A N/A N3        29.94R
LAKE FOREST FR   N/A     55  45  68 CALM      29.89R
HUNTINGTON BCH   N/A     64  39  40 NW1       29.99R
LOS ALAMITOS   FAIR      64  33  32 NW16      29.97R
FULLERTON      CLEAR     64  33  31 NW3       29.96R
LONG BEACH     CLEAR     65  30  27 NW22      29.97R
L.A. AP        CLEAR     65  36  34 NW25G38   29.97S
L.A. DOWNTOWN  CLEAR     65  35  33 NW9       29.97S

$$

THE INLAND EMPIRE

CITY           SKY/WX    TMP DP  RH WIND       PRES   REMARKS
CORONA         CLEAR     57  37  47 E7        29.98R
CHINO          CLEAR     59  40  49 S5        29.99R
ONTARIO        CLEAR     59  38  45 CALM      29.98R
SAN BERNARDINO FAIR      62  28  27 SE8       29.98R
RIVERSIDE AP   CLEAR     57  43  59 SE6       29.98R
MORENO VALLEY    N/A     57  38  48 NE5       28.11R
MARCH ARB      CLEAR     52  50  95 S9        29.99R
HORSETHIEF CYN   N/A     54  38  54 CALM      30.01R
PERRIS           N/A     53  50  89 S5        30.01R
HEMET EAST       N/A     52  44  73 CALM      30.05R
FRENCH VALLEY  FAIR      52  48  87 S3        30.02R
TEMECULA         N/A     55  51  88 SE2       30.06R

$$

SAN BERNARDINO AND RIVERSIDE COUNTY MOUNTAINS

CITY           SKY/WX    TMP DP  RH WIND       PRES   REMARKS
BIG BEAR AP    CLEAR     36  21  55 N6        30.07R WCI  31
PINE COVE        N/A     37  30  77 N6        30.00R WCI  32

$$

SOUTHERN DESERT INCLUDING THE COACHELLA VALLEY

CITY           SKY/WX    TMP DP  RH WIND       PRES   REMARKS
PALM SPRINGS   CLEAR     71  30  21 N12G22    29.89R
PALM DESERT      N/A     68  38  33 CALM      29.79R
THERMAL        CLEAR     69  36  29 NW13      29.86R
BLYTHE         CLEAR     71  27  19 NW17G24   29.83R
IMPERIAL AP    CLEAR     66  43  43 W16G23    29.86R
EL CENTRO NAS  PTCLDY    68  38  33 W22       29.89R
YUMA AZ        CLEAR     67  42  40 NW15G24   29.83
MEXICALI       CLEAR     68  37  32 W14       29.86R

$$

UPPER DESERT

CITY           SKY/WX    TMP DP  RH WIND       PRES   REMARKS
VICTORVILLE AP CLEAR     48  27  43 W13       30.07R
HESPERIA         N/A     49  29  46 CALM      30.19R
PALMDALE       CLEAR     52  34  50 NW28G35   30.06R
LANCASTER      CLEAR     52  35  52 W18G30      N/A
EDWARDS AFB    PTCLDY    52  31  45 N6        30.02R
DAGGETT        CLEAR     56  31  38 W12G25    30.02R
29 PALMS N     PTCLDY    57  27  31 NW21G29   30.04R
NEEDLES        MOCLDY    70  35  27 N16       29.89R

$$

REGIONAL REPORTS

CITY           SKY/WX    TMP DP  RH WIND       PRES   REMARKS
SANTA BARBARA  CLEAR     59  42  53 NW9       30.02R
SANDBERG       CLOUDY    43  35  73 N12G28    30.14R
LAS VEGAS NV   PTCLDY    61  27  27 NW21G33   29.95R
PHOENIX AZ     MOCLDY    73  34  23 W10       29.76R
TIJUANA        CLEAR     55  48  76 CALM      30.05R

$$

OFFSHORE ISLANDS

CITY           SKY/WX    TMP DP  RH WIND       PRES   REMARKS
CATALINA ARPT  CLEAR     53  48  83 NW17      30.01R
SAN NICOLAS IS CLEAR    N/A N/A N/A W29G38    30.04R

$$

MARINE AND OFFSHORE BUOY REPORTS

STATION/POSITION SKY/WX   TEMP    WIND        PRES    VSBY  SWELL
                          AIR SEA DIR/SP/G                  HT/PER/DIR
                          (F)     (DEG/KT/KT) (MB)    (MI)  (FT/S/D)
TANNER BANKS               57 59  310/ 29/ 39 1016.2F         8/330/10
S CLEMENTE BASIN           58 60  300/ 19/ 23 1015.9R         5/360/13
SAN NICOLAS IS.               56                N/A           5/290/11
SO. S. ROSA ISLA           56 56  310/ 33/ 39 1017.3R         5/270/12
W. S. BARBARA CH           55 56  340/ 27/ 35 1019.3R         7/310/ 9
M. S. BARBARA CH                                N/A           5/260/10
S. MONICA BASIN            60 59  300/ 17/ 23 1015.6R         3/280/12
S PEDRO CHANNEL               60                N/A           2/260/13
CMP PENDLETON NS              61                N/A           2/240/13
OCEANSIDE OFFSHR              61                N/A           2/230/13
TORREY PINES OTR              62                N/A           2/260/13
POINT LOMA SOUTH              62                N/A           3/280/11

$$




USA.gov is the U.S. government's official web portal to all federal, state and local government web resources and services.